Tracking 29892 objects as of 21-Nov-2024
HD Live streaming from Space Station
objects crossing your sky now

MARISAT 3

Track MARISAT 3 now!
MARISAT 3 is classified as:


NORAD ID: 8882
Int'l Code: 1976-053A
Perigee: 36,492.5 km
Apogee: 37,638.9 km
Inclination: 9.1 °
Period: 1,501.6 minutes
Semi major axis: 43436 km
RCS: 3.2504 m2 (large)
Launch date: June 10, 1976
Source: United States (US)
Launch site: AIR FORCE EASTERN TEST RANGE (AFETR)
Your satellite tracking list
Your tracking list is empty




NASA's NSSDC Master Catalog

Two Line Element Set (TLE):
1 08882U 76053A   24325.35509573 -.00000188  00000-0  00000-0 0  9998
2 08882   9.0592 304.8752 0131970 320.5418 225.2499  0.95899774115655
Source of the keplerian elements: AFSPC